Погода в Ишиме

Погода в Ишиме : погода сейчас, прогноз погоды и архив. Всё, что Вы хотите узнать о погоде в Ишиме!

Хотите узнать прогноз погоды в Ишиме? Тогда Вам сюда: Погода в Ишиме

Поиск расширенной информации на нашем сайте:

Другие новости

Новости СМИ2

Главная страница сайта

Новости сайта

03.07.2017

Напоминаем, что на нашем специализированном сайте Метеоцентр.Азия вы можете получить высокодетализированные автоматические прогнозы погоды по пунктам России, СНГ и мира в авиационном формате (включающие направление и скорость ветра, видимость, явления погоды, количество и форму облачности, нижнюю и верхнюю границу облачности).


Погода в Ишиме - сегодня

Время (UTC), дата Ветер
(°,м/с) 
Видим.   Явления Облачность Т
(°С)
Тd
(°С)
f(%) Тe
(°С)
Pmin
(гПа)
dP
(гПа)
Po
(мм)
O2
(г/м3)
Тmin Tmax R s Состояние
почвы
00 22.02.18 240 (ЮЗ) 10 км  {ливн. осадки}  ясно 
-15.1 -16.9 86 -19  1014.6  2.1  753  322           
03 22.02.18 200 (Ю) 20000 м    ясно 
-15.4 -17.3 85 -19  1016.2  1.6  754  323  -16.9    0.0  22  равномерный
сухой снег
100% 
06 22.02.18 190 (Ю) 20000 м    ясно 
-12.4 -15.6 77 -14  1017  0.8  755  320           
09 22.02.18 200 (Ю) 20000 м    ясно 
-9.7 -13.8 72 -14  1017  0.1  755  317           
12 22.02.18 180 (Ю) 20000 м    10/0 средняя, верхняя 
[Ac trans|Ci fib]
-9.4 -13.4 73 -12  1016.4  0.1  754  316           
15 22.02.18 220 (ЮЗ) 4000 м  слаб. снег  10/0 средняя 
[As op]
-11.4 -13.3 86 -16  1016.8  0.4  755  318    -8.8  0.5     
21 22.02.18 180 (Ю) 10 км  [диам. изморози 3 мм]  10/0 верхняя 
[Ci fib]
-20.2 -22.4 83 -23  1018.6  0.8  756  330           
00 23.02.18 190 (Ю) 10 км  [диам. изморози 4 мм]  10/0 верхняя 
[Ci fib]
-20.7 -23.3 80 -21  1019.8  1.1  756  331           
03 23.02.18 210 (ЮЗ) 20000 м  [диам. изморози 5 мм]  10/0 верхняя 
[Ci fib]
-22.2 -24.8 79 -25  1020.7  0.9  757  334  -22.9    0.2  20  равномерный
сухой снег
100% 
06 23.02.18 190 (Ю) 20000 м  [диам. изморози 5 мм]  ясно 
-16.9 -19.4 81 -19  1020.8  0.3  757  327           
09 23.02.18 200 (Ю) 20000 м  [диам. изморози 0 мм]  ясно 
-12.8 -17.5 68 -15  1020.7  757  322           
12 23.02.18 200 (Ю) 20000 м    ясно 
-13.9 -18.3 69 -17  1020.7  757  323           
15 23.02.18 210 (ЮЗ) 10 км    ясно 
-20.6 -22.6 84 -21  1021  757  332    -12.5       
18 23.02.18 тихо ()   10 км    ясно 
-23 -25.7 78 -23  1021.4  0.3  758  335           
21 23.02.18 230 (ЮЗ) 10 км    ясно 
-26.8 -29.9 75 -27  1021.8  0.2  758  340           
00 24.02.18 240 (ЮЗ) 10 км    ясно 
-28.2 -31.5 73 -29  1022  0.2  758  342           
03 24.02.18 240 (ЮЗ) 20000 м    ясно 
-29 -32.5 72 -30  1022.8  0.7  758  344  -29.5      20  равномерный
сухой снег
100% 
06 24.02.18 200 (Ю) 20000 м    ясно 
-18.3 -21.7 75 -19  1023.1  0.8  759  329           
09 24.02.18 170 (Ю) 20000 м    ясно 
-14.7 -19.5 67 -17  1023  0.1  759  325           
12 24.02.18 230 (ЮЗ) 20000 м    ясно 
-13.8 -19.1 64 -17  1023.4  0.4  759  324           
15 24.02.18 220 (ЮЗ) 10 км    ясно 
-19.1 -21.9 79 -23  1024.9  1.3  760  331    -13.2       
18 24.02.18 180 (Ю) н/о    н/о 
-23.9 -26.5 79 -24  1026.4  1.2  761  338           
21 24.02.18 200 (Ю) 10 км    ясно 
-21.8 -24.3 80 -25  1026.9  0.7  762  335           
00 25.02.18 200 (Ю) 10 км    ясно 
-23.4 -26 79 -26  1027.9  0.8  762  338           
03 25.02.18 200 (Ю) 20000 м    3/0 средняя 
[Ac trans]
-22.9 -25.6 79 -28  1028.7  0.8  763  337  -25.4      20  равномерный
сухой снег
100% 
Время (UTC), дата Ветер
(°,м/с) 
Видим.   Явления Облачность Т
(°С)
Тd
(°С)
f(%) Тe
(°С)
Pmin
(гПа)
dP
(гПа)
Po
(мм)
O2
(г/м3)
Тmin Tmax R s Состояние
почвы

Для получения пояснительной информации подведите курсор к названию столбца.

ПОГОДА в Ишиме - архив

Всё, что Вы хотите узнать о погоде в Ишиме - удобно и подробно!

Выберите нужную дату (начиная с 1 января 2015* года) и нажмите кнопку "Найти".
Будут отображены архивные сводки погоды по пункту Ишим, начиная с указанной даты.


Отображать данные в формате CSV (для использования в таблицах Excel)


Внимание! Наш архив погоды предназначен исключительно для личного некоммерческого использования в познавательных целях. Если Вам необходимы официальные справки о состоянии погоды (для производственных, юридических, коммерческих и т.п. целей), обращайтесь в органы Росгидромета.

*Примечание: данная дата относится к архиву по метеостанциям СССР (Россия, СНГ, Балтия).
Архив по метеостанциям Зарубежной Европы и Азии (кроме Китая) хранится 10 дней, по другим регионам земного шара (Китай, Африка, Америка, Австралия, Океания) - 1 день.

Ишим - район местоположения метеостанции


Название, широта, долгота, высота метеостанции:
Ишим 56.1°ш. 69.4°д. 82 м над ур. моря [Российская Федерация]

Дополнительная информация

В oтличие oт бoльшинства пoгoдных сайтoв мы публикуем пoдрoбную метеoинфoрмацию в детальнoм прoфессиoнальнoм фoрмате.

Характеристики температуры и влажнoсти вoздуха измеряются на высoте 2 м в тени вдали oт зданий и деревьев.
Скoрoсть ветра измеряется на высoте 10 м (на урoвне рoста челoвека скoрoсть ветра ниже в 1.5-2 раза). Если метеoстанция нахoдится в гoрoде или в лесу, тo скoрoсть ветра занижена на 2-4 м/с пo сравнению с oткрытым местoм. Скoрoсть ветра над акватoриями крупных рек и oзёр, а также на вершинах хoлмoв на 2-5 м/с выше, чем в oбычных услoвиях.
Атмoсфернoе давление в разных тoчках местнoсти мoжет значительнo oтличаться oт давления на метеoстанции, в зависимoсти oт услoвий рельефа (при пoдъёме на 10 м давление пoнижается примернo на 1 мм рт.ст.).